Flag for France Weather past 2 weeks in Biarritz, France

Now
55 °F

Light rain. Low clouds.


Feels Like: 54 °F
Forecast: 45 / 51 °F
Wind: 7 mph from West

Location: Biarritz Airport

Current Time: Dec 20, 2014 at 3:49:40 PM

Latest Report: Dec 20, 2014 at 3:00 PM


Visibility: 6 mi

Pressure: 30.51 "Hg

Humidity: 94%

Dew point: 54 °F

Location of BiarritzLocation

Historic Weather in Biarritz — Graph

°F

Biarritz temperature yesterday

Maximum temperature yesterday: 55 °F (at 1:30 PM)
Minimum temperature yesterday: 52 °F (at 12:00 AM)
Average temperature yesterday: 53 °F

Past Weeks' High & Low Weather Summary

 TemperatureHumidityPressure
High59 °F (Dec 12, 1:00 PM)100% (Dec 7, 10:00 PM)30.54 "Hg (Dec 7, 10:00 PM)
Low36 °F (Dec 7, 2:00 AM)44% (Dec 13, 5:00 AM)29.77 "Hg (Dec 13, 4:30 AM)
Average50 °F81%30.27 "Hg
* Reported Dec 5 3:00 PM — Dec 20 3:00 PM, Biarritz, Weather by CustomWeather, © 2014

Note: Actual official high and low records may vary slightly from our data, if they occured in-between our weather recording intervals... More about our weather records

Advertising

Biarritz weather history for previous 24 hours

 ConditionsComfort  
Time TempWeatherWind HumidityBarometerVisibility
3:00 PM
Dec 20
55 °FLight rain. Low clouds.7 mph94%30.51 "Hg6 mi
2:30 PM55 °FLow clouds.9 mph94%30.51 "HgN/A
2:00 PM54 °FLow clouds.8 mph100%30.51 "HgN/A
1:30 PM54 °FLight rain. Fog.8 mph94%30.54 "Hg2 mi
1:00 PM54 °FLight rain. Low clouds.8 mph100%30.54 "Hg5 mi
12:30 PM54 °FLight rain. Fog.7 mph100%30.54 "Hg2 mi
12:00 PM54 °FLight rain. Fog.8 mph94%30.54 "Hg2 mi
11:30 AM54 °FRain. Fog.5 mph94%30.54 "Hg1 mi
11:00 AM54 °FRain. Fog.8 mph94%30.54 "Hg1 mi
10:30 AM54 °FLight rain. Fog.3 mph94%30.54 "Hg2 mi
10:00 AM54 °FDrizzle. Mostly cloudy.5 mph94%30.54 "Hg4 mi
9:30 AM54 °FDrizzle. Partly sunny.3 mph88%30.54 "Hg6 mi
9:00 AM54 °FDrizzle. Mostly cloudy.3 mph88%30.51 "Hg5 mi
8:30 AM54 °FPartly cloudy.5 mph88%30.51 "HgN/A
8:00 AM54 °FOvercast.5 mph88%30.51 "HgN/A
7:30 AM54 °FMostly cloudy.3 mph82%30.51 "HgN/A
7:00 AM52 °FOvercast.3 mph88%30.51 "HgN/A
6:30 AM52 °FOvercast.3 mph82%30.51 "HgN/A
6:00 AM52 °FOvercast.1 mph82%30.51 "HgN/A
5:30 AM52 °FOvercast.No wind82%30.51 "HgN/A
5:00 AM52 °FOvercast.2 mph88%30.51 "HgN/A
4:30 AM52 °FOvercast.2 mph82%30.51 "HgN/A
4:00 AM52 °FDrizzle. Overcast.2 mph88%30.51 "HgN/A
3:30 AM52 °FOvercast.2 mph88%30.51 "HgN/A
3:00 AM52 °FOvercast.3 mph88%30.51 "HgN/A
2:30 AM52 °FDrizzle. Overcast.3 mph88%30.51 "Hg4 mi
2:00 AM54 °FLight rain. Overcast.3 mph82%30.51 "HgN/A
1:30 AM54 °FOvercast.3 mph82%30.51 "HgN/A
1:00 AM54 °FMostly cloudy.3 mph72%30.54 "HgN/A
12:30 AM54 °FOvercast.3 mph72%30.54 "HgN/A
12:00 AM54 °FMostly cloudy.3 mph72%30.54 "HgN/A
11:30 PM
Dec 19
52 °FMostly cloudy.3 mph77%30.51 "HgN/A
11:00 PM52 °FOvercast.3 mph77%30.51 "HgN/A
10:30 PM54 °FMostly cloudy.2 mph72%30.54 "HgN/A
10:00 PM54 °FOvercast.3 mph72%30.51 "HgN/A
9:30 PM54 °FOvercast.3 mph72%30.51 "HgN/A
9:00 PM54 °FOvercast.3 mph72%30.51 "HgN/A
8:30 PM52 °FOvercast.3 mph77%30.51 "HgN/A
8:00 PM52 °FOvercast.3 mph72%30.51 "HgN/A
7:30 PM52 °FOvercast.3 mph77%30.51 "HgN/A
7:00 PM52 °FOvercast.3 mph72%30.48 "HgN/A
6:30 PM52 °FOvercast.3 mph77%30.48 "HgN/A
6:00 PM54 °FOvercast.3 mph67%30.48 "HgN/A
5:30 PM54 °FOvercast.3 mph72%30.48 "HgN/A
5:00 PM54 °FOvercast.3 mph67%30.48 "HgN/A
4:30 PM54 °FOvercast.5 mph72%30.48 "HgN/A
4:00 PM54 °FOvercast.3 mph72%30.45 "HgN/A
3:30 PM54 °FOvercast.3 mph72%30.45 "HgN/A
3:00 PM54 °FOvercast.5 mph72%30.48 "HgN/A
Weather by CustomWeather, © 2014

See weather overviewHow to use our weather pages